Burlington Regional Airport
Saturday 8:53 PM
Temperature47° (52°/29°)
Dew Point32°
Feels Like46°
Relative Humidity56
%
Visibility10
mi
Pressure1020.0
mb
Wind Direction
Wind Speed3
mph
Precipitation TodayTrace

Last 30 Observations

Time PresWx Temp DP Feels RH% Vsby Pressure Ceiling Direction Speed 1h Precip
8:53 PM 47° 32° 46°56
%
10
mi
1020.0
mb
NW
310°
3
mph
0.00"
7:53 PM 49° 30° 48
%
10
mi
1019.3
mb
Calm 0.00"
6:53 PM 48° 31° 47°51
%
10
mi
1019.7
mb
NNE
30°
3
mph
0.00"
5:53 PM 50° 32° 50
%
10
mi
1019.3
mb
NNE
20°
6
mph
0.00"
4:53 PM 50° 32° 50
%
10
mi
1019.7
mb
NNE
30°
6
mph
0.00"
3:53 PM 50° 33° 52
%
10
mi
1020.3
mb
NNE
20°
8
mph
0.00"
2:53 PM 48° 34° 45°58
%
10
mi
1021.0
mb
ENE
60°
7
mph
0.00"
1:53 PM 43° 33° 40°68
%
10
mi
1021.7
mb
Variable 5
mph
0.00"
1:03 PM 40° 31° 36°70
%
10
mi
1022.4
mb
Variable 6
mph
0.00"
12:53 PM 39° 31° 32°72
%
10
mi
1022.4
mb
1,500
ft
NW
320°
11
mph
0.00"
12:49 PM 39° 30° 32°70
%
10
mi
1022.4
mb
1,500
ft
NNW
340°
13
mph
0.00"
11:53 AM 35° 29° 26°78
%
10
mi
1023.0
mb
1,300
ft
NNW
340°
13
mph
0.00"
10:53 AM 33° 27° 24°78
%
10
mi
1023.4
mb
1,100
ft
N
350°
13
mph
0.00"
9:53 AM 31° 27° 22°85
%
10
mi
1023.0
mb
1,000
ft
NNW
330°
10
mph
0.00"
8:53 AM 30° 26° 21°85
%
10
mi
1023.0
mb
800
ft
NNW
330°
11
mph
0.00"
7:53 AM 29° 25° 19°85
%
10
mi
1023.0
mb
800
ft
NNW
340°
13
mph
0.00"
6:53 AM 29° 25° 18°85
%
10
mi
1022.7
mb
800
ft
NNW
330°
14
mph
0.00"
5:53 AM 29° 26° 18°89
%
10
mi
1022.4
mb
700
ft
NNW
330°
14
mph
(G21)
0.00"
4:53 AM 30° 26° 22°85
%
10
mi
1022.0
mb
900
ft
NW
320°
9
mph
0.00"
4:01 AM 30° 26° 19°85
%
10
mi
1021.7
mb
900
ft
NNW
330°
15
mph
0.00"
3:53 AM 30° 26° 19°85
%
10
mi
1021.7
mb
1,000
ft
NNW
330°
15
mph
0.00"
2:53 AM 31° 27° 21°85
%
10
mi
1021.3
mb
1,200
ft
NNW
330°
14
mph
0.00"
1:53 AM 32° 27° 23°81
%
10
mi
1021.3
mb
1,300
ft
NNW
340°
11
mph
0.00"
12:53 AM 32° 27° 22°81
%
10
mi
1020.7
mb
1,100
ft
NNW
330°
13
mph
(G25)
0.00"
11:53 PM 32° 28° 22°85
%
10
mi
1020.3
mb
1,000
ft
NNW
330°
14
mph
(G25)
0.00"
11:25 PM 32° 28° 22°85
%
10
mi
1020.7
mb
NW
320°
15
mph
0.00"
10:53 PM 32° 29° 22°88
%
8
mi
1020.7
mb
NW
320°
14
mph
(G23)
Trace
9:53 PM -RA 33° 29° 24°85
%
7
mi
1020.3
mb
1,100
ft
NW
320°
11
mph
0.00"
9:48 PM UP 34° 28° 25°80
%
9
mi
1020.3
mb
3,200
ft
NW
310°
11
mph
(G22)
0.00"
8:53 PM 33° 29° 24°85
%
10
mi
1020.0
mb
1,300
ft
NNW
330°
11
mph
(G23)
0.00"